East Midlands, United Kingdom

9:48 PM GMT on January 18, 2018 (GMT +0000)
East Midlands

Weather History for EGNX - March, 2013

Change the Weather History Date:

Saturday, March 2, 2013

  Actual Average Record
Temperature  
Mean Temperature 42 °F -  
Max Temperature 48 °F 48 °F 55 °F (1999)
Min Temperature 33 °F 36 °F 24 °F (2001)
Degree Days  
Heating Degree Days 24    
Moisture  
Dew Point 30 °F    
Average Humidity 70    
Maximum Humidity 87    
Minimum Humidity 54    
Precipitation  
Precipitation 0.00 in - - ()
Sea Level Pressure  
Sea Level Pressure 30.33 in    
Wind  
Wind Speed 5 mph ()    
Max Wind Speed 9 mph    
Max Gust Speed -    
Visibility 6.1 miles    
Events      
Averages and records for this station are not official NWS values.
T = Trace of Precipitation, MM = Missing Value Source: Averaged Metar Reports

Daily Weather History Graph

Daily Weather History Graph

Search for Another Location

Airport or City:

Trip Planner

Search our weather history database for the weather conditions in past years. The results will help you decide how hot, cold, wet, or windy it might be!

Date:

Astronomy

Mar. 02, 2013 Rise Set
Actual Time 6:49 AM GMT 5:46 PM GMT
Civil Twilight 6:15 AM GMT 6:20 PM GMT
Nautical Twilight 5:35 AM GMT 7:00 PM GMT
Astronomical Twilight 4:55 AM GMT 7:40 PM GMT
Moon 11:59 PM GMT (3/2) 8:22 AM GMT (3/2)
Length of Visible Light 12h 05m
Length of Day
10h 56m
Waning Gibbous, 76% of the Moon is Illuminated
Mar 2
Waning Gibbous
Mar 4
Last Quarter
Mar 11
New
Mar 19
First Quarter
Mar 27
Full

Hourly Weather History & Observations

Time (GMT) Temp. Windchill Dew Point Humidity Pressure Visibility Wind Dir Wind Speed Gust Speed Precip Events Conditions
12:20 AM 37.4 °F 30.8 °F 30.2 °F 75% 30.42 in 6.2 mi NNE 9.2 mph - N/A   Overcast
12:50 AM 37.4 °F 32.1 °F 30.2 °F 75% 30.42 in 6.2 mi NNE 6.9 mph - N/A   Overcast
1:20 AM 37.4 °F 31.4 °F 30.2 °F 75% 30.42 in 6.2 mi North 8.1 mph - N/A   Overcast
1:50 AM 37.4 °F 32.8 °F 30.2 °F 75% 30.42 in 6.2 mi North 5.8 mph - N/A   Mostly Cloudy
2:20 AM 37.4 °F 32.8 °F 28.4 °F 70% 30.42 in 6.2 mi North 5.8 mph - N/A   Overcast
2:50 AM 37.4 °F 32.1 °F 28.4 °F 70% 30.39 in 6.2 mi North 6.9 mph - N/A   Mostly Cloudy
3:20 AM 37.4 °F 32.8 °F 28.4 °F 70% 30.39 in 6.2 mi North 5.8 mph - N/A   Overcast
3:50 AM 37.4 °F 33.8 °F 28.4 °F 70% 30.39 in 6.2 mi NNW 4.6 mph - N/A   Overcast
4:20 AM 35.6 °F 31.7 °F 28.4 °F 75% 30.39 in 6.2 mi North 4.6 mph - N/A   Overcast
4:50 AM 35.6 °F 31.7 °F 28.4 °F 75% 30.39 in 6.2 mi NNW 4.6 mph - N/A   Mostly Cloudy
5:20 AM 35.6 °F 31.7 °F 28.4 °F 75% 30.39 in 6.2 mi North 4.6 mph - N/A   Overcast
5:50 AM 35.6 °F 32.8 °F 28.4 °F 75% 30.36 in 6.2 mi NNW 3.5 mph - N/A   Overcast
6:20 AM 35.6 °F 31.7 °F 28.4 °F 75% 30.36 in 6.2 mi NNW 4.6 mph - N/A   Overcast
6:50 AM 35.6 °F 31.7 °F 28.4 °F 75% 30.36 in 6.2 mi NW 4.6 mph - N/A   Overcast
7:20 AM 35.6 °F 31.7 °F 28.4 °F 75% 30.36 in 6.2 mi WNW 4.6 mph - N/A   Mostly Cloudy
7:50 AM 35.6 °F 32.8 °F 28.4 °F 75% 30.36 in 6.2 mi WNW 3.5 mph - N/A   Mostly Cloudy
8:20 AM 35.6 °F - 28.4 °F 75% 30.39 in 6.2 mi Variable 2.3 mph - N/A   Mostly Cloudy
8:50 AM 37.4 °F - 28.4 °F 70% 30.36 in 6.2 mi West 2.3 mph - N/A   Mostly Cloudy
9:20 AM 37.4 °F 34.9 °F 28.4 °F 70% 30.36 in 6.2 mi Variable 3.5 mph - N/A   Mostly Cloudy
9:50 AM 39.2 °F - 28.4 °F 65% 30.36 in 6.2 mi Variable 2.3 mph - N/A   Scattered Clouds
10:20 AM 41.0 °F 39.0 °F 28.4 °F 61% 30.36 in 6.2 mi Variable 3.5 mph - N/A   Scattered Clouds
10:50 AM 41.0 °F - 28.4 °F 61% 30.36 in - Variable 2.3 mph - N/A   Clear
11:20 AM 42.8 °F 40.1 °F 30.2 °F 61% 30.36 in - Variable 4.6 mph - N/A   Clear
11:50 AM 42.8 °F 41.1 °F 30.2 °F 61% 30.33 in - Variable 3.5 mph - N/A   Clear
12:20 PM 42.8 °F 40.1 °F 30.2 °F 61% 30.33 in - Variable 4.6 mph - N/A   Clear
12:50 PM 44.6 °F 42.2 °F 32.0 °F 61% 30.33 in 6.2 mi NNW 4.6 mph - N/A   Partly Cloudy
1:20 PM 46.4 °F 45.2 °F 32.0 °F 57% 30.30 in - Variable 3.5 mph - N/A   Clear
1:50 PM 46.4 °F - 32.0 °F 57% 30.30 in 6.2 mi Variable 2.3 mph - N/A   Partly Cloudy
2:20 PM 48.2 °F - 32.0 °F 54% 30.30 in - Variable 3.5 mph - N/A   Clear
2:50 PM 48.2 °F - 33.8 °F 58% 30.30 in 6.2 mi Variable 3.5 mph - N/A   Partly Cloudy
3:20 PM 48.2 °F - 32.0 °F 54% 30.27 in 6.2 mi Variable 3.5 mph - N/A   Partly Cloudy
3:50 PM 48.2 °F - 33.8 °F 58% 30.27 in 6.2 mi WSW 4.6 mph - N/A   Partly Cloudy
4:20 PM 46.4 °F 44.3 °F 33.8 °F 62% 30.27 in - WSW 4.6 mph - N/A   Clear
4:50 PM 46.4 °F 43.5 °F 33.8 °F 62% 30.27 in - West 5.8 mph - N/A   Clear
5:20 PM 44.6 °F 41.4 °F 32.0 °F 61% 30.27 in 6.2 mi WSW 5.8 mph - N/A   Partly Cloudy
5:50 PM 41.0 °F 36.4 °F 32.0 °F 70% 30.27 in 5.6 mi WSW 6.9 mph - N/A   Partly Cloudy
6:20 PM 44.6 °F 43.1 °F 32.0 °F 61% 30.27 in 5.6 mi Variable 3.5 mph - N/A   Partly Cloudy
6:50 PM 42.8 °F 39.3 °F 32.0 °F 66% 30.27 in 5.6 mi SW 5.8 mph - N/A   Partly Cloudy
7:20 PM 41.0 °F 38.0 °F 32.0 °F 70% 30.27 in 5.6 mi SE 4.6 mph - N/A   Partly Cloudy
7:50 PM 39.2 °F 37.0 °F 32.0 °F 75% 30.27 in 6.2 mi South 3.5 mph - N/A   Partly Cloudy
8:20 PM 39.2 °F 35.9 °F 32.0 °F 75% 30.27 in 6.2 mi SE 4.6 mph - N/A   Mostly Cloudy
8:50 PM 37.4 °F 33.8 °F 32.0 °F 81% 30.27 in 6.2 mi SSE 4.6 mph - N/A   Partly Cloudy
9:20 PM 37.4 °F 32.8 °F 32.0 °F 81% 30.27 in 6.2 mi South 5.8 mph - N/A   Partly Cloudy
9:50 PM 35.6 °F 31.7 °F 32.0 °F 87% 30.27 in 6.2 mi South 4.6 mph - N/A   Partly Cloudy
10:20 PM 35.6 °F 32.8 °F 32.0 °F 87% 30.27 in 6.2 mi WSW 3.5 mph - N/A   Unknown
10:50 PM 35.6 °F - 30.2 °F 81% 30.27 in - NW 2.3 mph - N/A   Clear
11:20 PM 35.6 °F 32.8 °F 32.0 °F 87% 30.27 in - NNW 3.5 mph - N/A   Clear
11:50 PM 33.8 °F 30.8 °F 30.2 °F 87% 30.27 in - West 3.5 mph - N/A   Clear